contact:dominique.lefevre@mio.osupytheas.fr, maurice.libes@osupytheas.fr, didier.mallarino@osupytheas.fr
Project:EMSO http://www.emso-fr.org/EMSO-France
Depth: 2436.0 m
Title:EMSO Ligure Ouest : Data MII capteur AQUADOPP
Date,Latitude,Longitude,X_East,Y_North,Z_Up,Amplitude_X,Amplitude_Y,Amplitude_Z,Batterie,SoundSpeed,Heading,Pitch,Roll,Pressure,TIS,Speed,Direction
, degrees North, degrees East, m.s-1, m.s-1,m.s-1, 1, 1, 1, Volt, m.s-1, degree, degree, degree, dbar, degree_C, m.s-1, degree
2022-06-07T00:04:03,42.805,6.029,0.057,0.008,0.013,101.0,107.0,101.0,13.4,1505.2,323.1,-0.8,1.8,2471.071,13.28,0.057,82.0
2022-06-07T00:07:03,42.805,6.029,0.029,0.005,0.022,102.0,104.0,100.0,13.4,1505.2,325.2,-0.7,1.9,2471.004,13.28,0.029,80.2
2022-06-07T00:10:03,42.805,6.029,0.037,0.014,0.002,102.0,104.0,101.0,13.3,1505.2,321.2,-0.8,1.8,2470.978,13.28,0.039,69.3
2022-06-07T00:13:03,42.805,6.029,0.035,0.014,-0.003,102.0,104.0,101.0,13.4,1505.2,331.7,-0.7,1.8,2470.997,13.28,0.037,68.2
2022-06-07T00:16:03,42.805,6.029,0.029,-0.006,-0.022,103.0,105.0,100.0,13.4,1505.2,321.2,-0.8,1.8,2470.995,13.28,0.029,101.7
2022-06-07T00:19:03,42.805,6.029,0.046,0.013,0.013,103.0,105.0,102.0,13.4,1505.2,326.1,-0.7,1.8,2471.014,13.28,0.047,74.2
2022-06-07T00:22:03,42.805,6.029,0.039,0.004,0.005,102.0,104.0,100.0,13.4,1505.2,328.2,-0.8,1.8,2471.012,13.28,0.039,84.1
2022-06-07T00:25:03,42.805,6.029,0.022,0.037,-0.005,103.0,105.0,101.0,13.4,1505.2,322.6,-0.8,1.8,2471.013,13.28,0.043,30.7
2022-06-07T00:28:03,42.805,6.029,0.038,-0.004,-0.012,103.0,105.0,101.0,13.3,1505.2,324.8,-0.8,1.9,2471.001,13.28,0.038,96.0
2022-06-07T00:31:03,42.805,6.029,0.022,0.015,-0.026,103.0,104.0,100.0,13.3,1505.2,326.7,-0.8,1.8,2470.953,13.28,0.026,55.7
2022-06-07T00:34:03,42.805,6.029,0.063,-0.004,-0.007,103.0,106.0,99.0,13.4,1505.2,328.2,-0.8,1.8,2470.953,13.28,0.063,93.6
2022-06-07T00:37:03,42.805,6.029,0.05,0.019,0.04,102.0,105.0,100.0,13.3,1505.2,320.8,-0.7,1.8,2470.987,13.28,0.053,69.2
2022-06-07T00:40:03,42.805,6.029,0.038,0.018,0.051,103.0,107.0,101.0,13.4,1505.2,325.8,-0.7,1.8,2470.993,13.28,0.042,64.7
2022-06-07T00:43:03,42.805,6.029,0.054,0.0,0.028,103.0,104.0,101.0,13.4,1505.2,320.3,-0.8,1.8,2470.963,13.28,0.053,90.0
2022-06-07T00:46:03,42.805,6.029,0.054,0.003,-0.014,102.0,105.0,101.0,13.4,1505.2,324.4,-0.8,1.8,2471.012,13.28,0.054,86.8
2022-06-07T00:49:03,42.805,6.029,0.041,-0.001,-0.004,104.0,105.0,101.0,13.4,1505.2,328.7,-0.7,1.8,2470.993,13.28,0.041,91.4
2022-06-07T00:52:03,42.805,6.029,0.045,-0.019,-0.012,102.0,104.0,101.0,13.4,1505.2,330.4,-0.7,1.8,2470.977,13.28,0.048,112.9
2022-06-07T00:55:03,42.805,6.029,0.064,-0.017,-0.013,102.0,104.0,100.0,13.4,1505.2,323.2,-0.7,1.8,2470.967,13.28,0.066,104.9
2022-06-07T00:58:03,42.805,6.029,0.041,-0.007,0.011,102.0,105.0,101.0,13.4,1505.2,328.5,-0.7,1.8,2470.978,13.28,0.041,99.7
2022-06-07T01:04:03,42.805,6.029,0.036,-0.038,-0.001,102.0,104.0,102.0,13.3,1505.2,330.1,-0.8,1.9,2471.015,13.28,0.052,136.5
2022-06-07T01:07:02,42.805,6.029,0.034,-0.021,-0.017,103.0,102.0,101.0,13.4,1505.2,327.1,-0.8,1.8,2470.993,13.28,0.039,121.7
2022-06-07T01:10:03,42.805,6.029,0.045,-0.005,-0.025,103.0,104.0,100.0,13.4,1505.2,323.7,-0.7,1.8,2470.977,13.28,0.045,96.3
2022-06-07T01:13:03,42.805,6.029,0.039,0.014,0.019,103.0,104.0,100.0,13.4,1505.2,320.5,-0.7,1.8,2471.022,13.28,0.041,70.3
2022-06-07T01:16:03,42.805,6.029,0.046,0.007,0.018,103.0,104.0,101.0,13.4,1505.2,326.4,-0.8,1.8,2470.967,13.28,0.046,81.3
2022-06-07T01:19:03,42.805,6.029,0.031,-0.029,-0.043,102.0,103.0,100.0,13.4,1505.2,332.3,-0.8,1.8,2470.97,13.28,0.042,133.1
2022-06-07T01:22:03,42.805,6.029,0.054,0.001,-0.039,101.0,104.0,100.0,13.4,1505.2,323.3,-0.8,1.8,2470.996,13.28,0.054,88.9
2022-06-07T01:25:03,42.805,6.029,0.034,0.0,0.013,102.0,104.0,101.0,13.4,1505.2,328.8,-0.7,1.8,2470.949,13.28,0.034,90.0
2022-06-07T01:28:03,42.805,6.029,0.036,0.01,0.014,103.0,103.0,101.0,13.4,1505.2,327.3,-0.8,1.8,2470.97,13.28,0.037,74.5
2022-06-07T01:31:03,42.805,6.029,0.025,-0.004,0.015,103.0,106.0,100.0,13.4,1505.2,325.4,-0.8,1.8,2470.96,13.28,0.025,99.1
2022-06-07T01:34:03,42.805,6.029,0.042,-0.004,-0.006,102.0,104.0,100.0,13.4,1505.2,326.3,-0.8,1.8,2470.98,13.28,0.042,95.4
2022-06-07T01:37:03,42.805,6.029,0.039,0.007,-0.02,102.0,105.0,100.0,13.4,1505.2,332.3,-0.7,1.8,2470.981,13.28,0.039,79.8
2022-06-07T01:40:03,42.805,6.029,0.036,0.005,-0.027,103.0,104.0,100.0,13.4,1505.2,320.3,-0.8,1.8,2470.957,13.28,0.036,82.1
2022-06-07T01:43:03,42.805,6.029,0.046,-0.009,-0.005,102.0,104.0,101.0,13.4,1505.2,323.3,-0.8,1.8,2470.966,13.28,0.046,101.1
2022-06-07T01:46:03,42.805,6.029,0.048,-0.003,-0.004,103.0,103.0,101.0,13.4,1505.2,324.0,-0.8,1.8,2470.967,13.28,0.048,93.6
2022-06-07T01:49:03,42.805,6.029,0.034,-0.011,0.0,103.0,105.0,100.0,13.4,1505.2,328.6,-0.7,1.8,2470.948,13.28,0.035,107.9
2022-06-07T01:52:03,42.805,6.029,0.042,0.011,0.03,102.0,105.0,101.0,13.4,1505.2,322.3,-0.7,1.8,2470.936,13.28,0.043,75.3
2022-06-07T01:55:03,42.805,6.029,0.049,0.013,0.015,103.0,103.0,100.0,13.3,1505.2,322.4,-0.7,1.8,2470.977,13.28,0.05,75.1
2022-06-07T01:58:03,42.805,6.029,0.033,0.007,-0.004,103.0,103.0,100.0,13.3,1505.2,320.7,-0.7,1.8,2470.951,13.28,0.033,78.0
2022-06-07T02:04:03,42.805,6.029,0.052,0.021,-0.019,103.0,103.0,101.0,13.3,1505.2,323.4,-0.8,1.8,2470.993,13.28,0.056,68.0
2022-06-07T02:07:03,42.805,6.029,0.022,-0.009,0.017,103.0,102.0,99.0,13.4,1505.2,324.4,-0.8,1.8,2471.004,13.28,0.023,112.2
2022-06-07T02:10:03,42.805,6.029,0.024,-0.011,-0.013,103.0,103.0,100.0,13.4,1505.2,327.2,-0.8,1.8,2471.004,13.28,0.026,114.6
2022-06-07T02:13:03,42.805,6.029,0.039,0.01,-0.004,103.0,105.0,101.0,13.3,1505.2,320.8,-0.8,1.8,2470.996,13.28,0.04,75.6
2022-06-07T02:16:03,42.805,6.029,0.017,-0.01,-0.001,104.0,104.0,100.0,13.4,1505.2,322.8,-0.8,1.8,2470.935,13.28,0.019,120.5
2022-06-07T02:19:03,42.805,6.029,0.04,0.0,0.032,103.0,102.0,101.0,13.4,1505.2,324.7,-0.7,1.8,2470.923,13.28,0.04,90.0
2022-06-07T02:22:03,42.805,6.029,0.021,-0.005,-0.031,102.0,104.0,100.0,13.4,1505.2,325.8,-0.7,1.8,2470.948,13.28,0.021,103.4
2022-06-07T02:25:03,42.805,6.029,0.037,0.006,0.01,103.0,104.0,100.0,13.3,1505.2,327.8,-0.8,1.8,2470.955,13.28,0.037,80.8
2022-06-07T02:28:03,42.805,6.029,0.028,-0.008,0.015,102.0,103.0,101.0,13.4,1505.2,330.7,-0.8,1.8,2470.939,13.28,0.029,105.9
2022-06-07T02:31:03,42.805,6.029,0.04,0.005,-0.001,102.0,104.0,100.0,13.4,1505.2,324.4,-0.7,1.8,2470.986,13.28,0.04,82.9
2022-06-07T02:34:03,42.805,6.029,0.039,-0.005,-0.013,104.0,100.0,101.0,13.4,1505.2,322.4,-0.7,1.8,2470.904,13.28,0.039,97.3
2022-06-07T02:37:03,42.805,6.029,0.025,-0.007,0.007,103.0,105.0,100.0,13.4,1505.2,331.9,-0.8,1.8,2470.962,13.28,0.025,105.6
2022-06-07T02:40:03,42.805,6.029,0.045,0.013,0.034,103.0,102.0,100.0,13.3,1505.2,324.2,-0.8,1.8,2470.948,13.28,0.046,73.9
2022-06-07T02:43:03,42.805,6.029,0.037,0.013,-0.022,104.0,103.0,100.0,13.4,1505.2,329.7,-0.7,1.8,2470.953,13.28,0.039,70.6
2022-06-07T02:46:03,42.805,6.029,0.034,0.007,0.039,102.0,102.0,101.0,13.4,1505.2,332.5,-0.7,1.8,2470.915,13.28,0.034,78.4
2022-06-07T02:49:03,42.805,6.029,0.032,0.001,0.002,103.0,103.0,101.0,13.4,1505.2,328.7,-0.8,1.8,2470.936,13.28,0.032,88.2
2022-06-07T02:52:03,42.805,6.029,0.019,-0.011,-0.018,103.0,103.0,101.0,13.4,1505.2,320.1,-0.8,1.8,2470.964,13.28,0.021,120.1
2022-06-07T02:55:03,42.805,6.029,0.041,0.013,0.003,103.0,102.0,100.0,13.4,1505.2,321.5,-0.7,1.8,2470.933,13.28,0.043,72.4
2022-06-07T02:58:03,42.805,6.029,0.04,-0.019,-0.024,102.0,102.0,101.0,13.4,1505.2,331.8,-0.7,1.8,2470.962,13.28,0.044,115.4
2022-06-07T03:04:03,42.805,6.029,0.042,-0.025,-0.056,102.0,104.0,100.0,13.4,1505.2,322.9,-0.7,1.8,2470.971,13.28,0.048,120.8
2022-06-07T03:07:03,42.805,6.029,0.049,0.004,0.002,102.0,103.0,100.0,13.4,1505.2,320.8,-0.7,1.8,2470.943,13.28,0.049,85.3
2022-06-07T03:10:03,42.805,6.029,0.041,-0.005,-0.021,102.0,103.0,101.0,13.4,1505.2,321.5,-0.8,1.8,2470.971,13.28,0.041,97.0
2022-06-07T03:13:03,42.805,6.029,0.045,0.011,0.014,103.0,102.0,100.0,13.4,1505.2,327.4,-0.8,1.9,2470.985,13.28,0.046,76.3
2022-06-07T03:16:03,42.805,6.029,0.019,-0.013,-0.03,103.0,102.0,101.0,13.4,1505.2,328.5,-0.8,1.8,2470.959,13.28,0.023,124.4
2022-06-07T03:19:03,42.805,6.029,0.038,-0.028,0.015,103.0,103.0,100.0,13.4,1505.2,330.0,-0.8,1.9,2470.913,13.28,0.047,126.4
2022-06-07T03:22:03,42.805,6.029,0.043,0.0,0.007,101.0,103.0,102.0,13.4,1505.2,321.7,-0.8,1.8,2470.981,13.28,0.043,90.0
2022-06-07T03:25:03,42.805,6.029,0.032,0.012,0.002,101.0,103.0,101.0,13.4,1505.2,324.6,-0.8,1.9,2470.941,13.28,0.034,69.4
2022-06-07T03:28:03,42.805,6.029,0.052,0.009,0.035,103.0,102.0,101.0,13.4,1505.2,325.6,-0.8,1.8,2470.933,13.28,0.052,80.2
2022-06-07T03:31:03,42.805,6.029,0.04,-0.01,-0.005,102.0,103.0,100.0,13.4,1505.2,323.6,-0.7,1.8,2470.918,13.28,0.041,104.0
2022-06-07T03:34:03,42.805,6.029,0.037,-0.011,0.016,102.0,102.0,100.0,13.4,1505.2,333.4,-0.7,1.8,2470.943,13.28,0.038,106.6
2022-06-07T03:37:03,42.805,6.029,0.04,-0.007,-0.007,102.0,103.0,101.0,13.3,1505.2,324.4,-0.8,1.8,2470.933,13.28,0.04,99.9
2022-06-07T03:40:03,42.805,6.029,0.041,0.006,-0.003,102.0,102.0,101.0,13.4,1505.2,324.3,-0.7,1.9,2470.939,13.28,0.041,81.7
2022-06-07T03:43:03,42.805,6.029,0.02,-0.014,-0.031,103.0,104.0,100.0,13.4,1505.2,326.8,-0.7,1.9,2470.927,13.28,0.024,125.0
2022-06-07T03:46:03,42.805,6.029,0.049,-0.005,-0.019,103.0,103.0,100.0,13.3,1505.2,327.7,-0.8,1.8,2470.899,13.28,0.049,95.8
2022-06-07T03:49:03,42.805,6.029,0.027,-0.006,-0.025,103.0,103.0,100.0,13.3,1505.2,327.8,-0.7,1.8,2470.945,13.28,0.027,102.5
2022-06-07T03:52:03,42.805,6.029,0.05,-0.024,0.0,103.0,102.0,100.0,13.4,1505.2,322.6,-0.8,1.8,2470.923,13.28,0.055,115.6
2022-06-07T03:55:03,42.805,6.029,0.054,-0.015,0.019,102.0,102.0,101.0,13.3,1505.2,324.5,-0.8,1.8,2470.885,13.28,0.056,105.5
2022-06-07T03:58:03,42.805,6.029,0.024,-0.03,-0.016,104.0,102.0,102.0,13.4,1505.2,321.7,-0.8,1.8,2470.911,13.28,0.038,141.3
2022-06-07T04:04:03,42.805,6.029,0.036,-0.008,0.0,102.0,103.0,101.0,13.3,1505.2,324.9,-0.8,1.8,2470.958,13.28,0.036,102.5
2022-06-07T04:07:03,42.805,6.029,0.031,-0.004,0.003,103.0,102.0,100.0,13.4,1505.2,320.4,-0.7,1.8,2470.933,13.28,0.031,97.3
2022-06-07T04:10:03,42.805,6.029,0.034,-0.013,-0.008,102.0,102.0,101.0,13.4,1505.2,326.8,-0.7,1.8,2470.948,13.28,0.036,110.9
2022-06-07T04:13:03,42.805,6.029,0.052,-0.009,0.015,102.0,103.0,101.0,13.3,1505.2,322.5,-0.8,1.8,2470.935,13.28,0.052,99.8
2022-06-07T04:16:03,42.805,6.029,0.022,0.017,-0.001,102.0,102.0,100.0,13.4,1505.2,321.7,-0.8,1.8,2470.954,13.28,0.027,52.3
2022-06-07T04:19:03,42.805,6.029,0.052,0.0,0.0,103.0,102.0,101.0,13.4,1505.2,321.7,-0.7,1.8,2470.966,13.28,0.052,90.0
2022-06-07T04:22:03,42.805,6.029,0.044,-0.008,-0.004,104.0,104.0,101.0,13.4,1505.2,321.7,-0.8,1.8,2470.911,13.28,0.044,100.3
2022-06-07T04:25:03,42.805,6.029,0.051,0.008,0.022,105.0,105.0,100.0,13.3,1505.2,324.6,-0.8,1.8,2470.897,13.28,0.051,81.1
2022-06-07T04:28:03,42.805,6.029,0.028,-0.016,0.004,103.0,102.0,101.0,13.3,1505.2,322.8,-0.7,1.8,2470.867,13.28,0.032,119.7
2022-06-07T04:31:03,42.805,6.029,0.033,0.008,-0.016,103.0,104.0,100.0,13.4,1505.2,327.2,-0.8,1.8,2470.896,13.28,0.033,76.4
2022-06-07T04:34:03,42.805,6.029,0.022,0.001,0.012,103.0,102.0,100.0,13.4,1505.2,323.1,-0.7,1.8,2470.91,13.28,0.022,87.4
2022-06-07T04:37:03,42.805,6.029,0.027,0.01,-0.001,102.0,102.0,100.0,13.3,1505.2,328.4,-0.8,1.8,2470.907,13.28,0.028,69.7
2022-06-07T04:40:03,42.805,6.029,0.058,-0.027,-0.027,103.0,104.0,100.0,13.3,1505.2,324.5,-0.7,1.8,2470.891,13.28,0.063,115.0
2022-06-07T04:43:03,42.805,6.029,0.039,-0.018,0.001,103.0,103.0,100.0,13.3,1505.2,320.7,-0.7,1.8,2470.893,13.28,0.042,114.8
2022-06-07T04:46:03,42.805,6.029,0.057,-0.001,0.049,103.0,104.0,100.0,13.3,1505.2,331.6,-0.7,1.8,2470.884,13.28,0.057,91.0
2022-06-07T04:49:03,42.805,6.029,0.049,0.008,0.001,100.0,103.0,101.0,13.4,1505.2,324.6,-0.8,1.8,2470.905,13.28,0.049,80.7
2022-06-07T04:52:03,42.805,6.029,0.034,-0.012,-0.02,100.0,104.0,100.0,13.3,1505.2,329.4,-0.7,1.8,2470.94,13.28,0.036,109.4
2022-06-07T04:55:03,42.805,6.029,0.043,-0.026,-0.01,104.0,101.0,100.0,13.4,1505.2,328.3,-0.7,1.8,2470.901,13.28,0.05,121.2
2022-06-07T04:58:03,42.805,6.029,0.054,-0.008,0.015,102.0,102.0,100.0,13.4,1505.2,319.9,-0.8,1.8,2470.914,13.28,0.054,98.4
2022-06-07T05:04:03,42.805,6.029,0.046,-0.01,-0.002,103.0,103.0,100.0,13.3,1505.2,322.2,-0.8,1.8,2470.901,13.28,0.047,102.3
2022-06-07T05:07:03,42.805,6.029,0.032,-0.01,0.009,103.0,104.0,101.0,13.4,1505.2,327.6,-0.7,1.8,2470.95,13.28,0.033,107.4
2022-06-07T05:10:03,42.805,6.029,0.051,-0.006,0.017,102.0,104.0,100.0,13.4,1505.2,326.3,-0.7,1.8,2470.946,13.28,0.051,96.7
2022-06-07T05:13:03,42.805,6.029,0.04,-0.009,0.001,103.0,103.0,100.0,13.4,1505.2,325.9,-0.7,1.8,2470.913,13.28,0.041,102.7
2022-06-07T05:16:03,42.805,6.029,0.025,-0.013,0.001,103.0,102.0,101.0,13.4,1505.2,329.4,-0.8,1.8,2470.897,13.28,0.028,117.5
2022-06-07T05:19:03,42.805,6.029,0.042,-0.01,0.011,102.0,103.0,100.0,13.4,1505.2,328.4,-0.8,1.8,2470.926,13.28,0.043,103.4
2022-06-07T05:22:03,42.805,6.029,0.037,-0.003,-0.012,102.0,106.0,100.0,13.4,1505.2,321.1,-0.7,1.8,2470.892,13.28,0.037,94.6
2022-06-07T05:25:03,42.805,6.029,-0.006,-0.018,-0.021,104.0,103.0,101.0,13.4,1505.2,329.0,-0.7,1.8,2470.919,13.28,0.018,198.4
2022-06-07T05:28:03,42.805,6.029,0.007,0.008,0.0,104.0,102.0,101.0,13.4,1505.2,326.4,-0.7,1.8,2470.916,13.28,0.01,41.2
2022-06-07T05:31:03,42.805,6.029,0.028,-0.026,-0.005,104.0,104.0,101.0,13.3,1505.2,331.4,-0.8,1.8,2470.865,13.28,0.038,132.9
2022-06-07T05:34:03,42.805,6.029,0.024,-0.017,-0.012,103.0,104.0,101.0,13.3,1505.2,327.6,-0.8,1.8,2470.9,13.28,0.029,125.3
2022-06-07T05:37:03,42.805,6.029,0.044,-0.009,0.02,103.0,103.0,100.0,13.4,1505.2,329.4,-0.7,1.8,2470.859,13.28,0.044,101.6
2022-06-07T05:40:03,42.805,6.029,0.033,0.009,-0.004,104.0,103.0,99.0,13.4,1505.2,324.6,-0.8,1.8,2470.847,13.28,0.034,74.7
2022-06-07T05:43:03,42.805,6.029,0.048,-0.009,-0.023,102.0,103.0,101.0,13.4,1505.2,326.4,-0.7,1.8,2470.877,13.28,0.048,100.6
2022-06-07T05:46:03,42.805,6.029,0.025,-0.02,0.004,102.0,103.0,101.0,13.3,1505.2,330.4,-0.8,1.8,2470.907,13.28,0.032,128.7
2022-06-07T05:49:03,42.805,6.029,0.031,-0.018,-0.003,102.0,103.0,101.0,13.3,1505.2,329.5,-0.7,1.8,2470.905,13.28,0.035,120.1
2022-06-07T05:52:03,42.805,6.029,0.026,-0.009,0.0,103.0,104.0,100.0,13.4,1505.2,328.2,-0.7,1.8,2470.894,13.28,0.027,109.1
2022-06-07T05:55:03,42.805,6.029,0.038,-0.012,-0.011,103.0,103.0,101.0,13.4,1505.2,333.2,-0.8,1.8,2470.885,13.28,0.039,107.5
2022-06-07T05:58:03,42.805,6.029,0.041,-0.004,-0.018,102.0,102.0,100.0,13.4,1505.2,324.6,-0.7,1.8,2470.892,13.28,0.041,95.6
2022-06-07T06:04:03,42.805,6.029,0.039,0.006,0.015,104.0,102.0,101.0,13.4,1505.2,321.4,-0.8,1.8,2470.891,13.28,0.039,81.3
2022-06-07T06:07:03,42.805,6.029,0.028,0.001,0.001,102.0,103.0,102.0,13.4,1505.2,323.3,-0.7,1.8,2470.893,13.28,0.028,88.0
2022-06-07T06:10:03,42.805,6.029,0.007,-0.011,-0.008,103.0,102.0,100.0,13.4,1505.2,327.6,-0.8,1.9,2470.867,13.28,0.013,147.5
2022-06-07T06:13:03,42.805,6.029,0.028,-0.002,0.004,103.0,103.0,101.0,13.4,1505.2,325.4,-0.8,1.8,2470.916,13.28,0.028,94.1
2022-06-07T06:16:03,42.805,6.029,0.009,0.004,0.021,103.0,103.0,101.0,13.4,1505.2,330.6,-0.7,1.8,2470.863,13.28,0.009,66.0
2022-06-07T06:19:03,42.805,6.029,0.026,0.003,-0.025,104.0,102.0,101.0,13.4,1505.2,321.0,-0.8,1.8,2470.874,13.28,0.026,83.4
2022-06-07T06:22:03,42.805,6.029,0.039,-0.012,-0.042,104.0,102.0,100.0,13.4,1505.2,330.0,-0.8,1.8,2470.866,13.28,0.04,107.1
2022-06-07T06:25:03,42.805,6.029,0.028,-0.012,-0.026,104.0,103.0,101.0,13.4,1505.2,320.8,-0.8,1.8,2470.896,13.28,0.03,113.2
2022-06-07T06:28:03,42.805,6.029,0.029,-0.01,0.01,103.0,104.0,102.0,13.3,1505.2,322.7,-0.8,1.8,2470.838,13.28,0.03,109.0
2022-06-07T06:31:03,42.805,6.029,0.012,-0.005,0.0,105.0,102.0,102.0,13.4,1505.2,324.6,-0.8,1.8,2470.816,13.28,0.013,112.6
2022-06-07T06:34:03,42.805,6.029,0.013,-0.003,-0.009,105.0,103.0,102.0,13.3,1505.2,323.7,-0.8,1.9,2470.899,13.28,0.013,103.0
2022-06-07T06:37:03,42.805,6.029,0.011,-0.012,0.005,104.0,103.0,101.0,13.3,1505.2,328.2,-0.8,1.8,2470.864,13.28,0.016,137.5
2022-06-07T06:40:03,42.805,6.029,0.012,0.0,-0.008,102.0,104.0,101.0,13.4,1505.2,324.9,-0.7,1.8,2470.871,13.29,0.012,90.0
2022-06-07T06:43:03,42.805,6.029,-0.004,0.0,-0.017,104.0,102.0,101.0,13.4,1505.2,321.6,-0.8,1.8,2470.831,13.28,0.004,270.0
2022-06-07T06:46:03,42.805,6.029,-0.005,-0.017,-0.004,104.0,102.0,100.0,13.3,1505.2,331.6,-0.7,1.8,2470.838,13.29,0.017,196.4
2022-06-07T06:49:03,42.805,6.029,0.02,-0.016,-0.026,102.0,102.0,101.0,13.4,1505.2,329.2,-0.8,1.8,2470.88,13.28,0.025,128.7
2022-06-07T06:52:03,42.805,6.029,0.008,0.007,-0.014,101.0,103.0,102.0,13.3,1505.2,323.2,-0.8,1.8,2470.85,13.28,0.01,48.8
2022-06-07T06:55:03,42.805,6.029,0.018,-0.008,-0.017,103.0,102.0,101.0,13.4,1505.2,329.8,-0.7,1.8,2470.866,13.29,0.019,114.0
2022-06-07T06:58:03,42.805,6.029,0.007,-0.005,0.004,103.0,103.0,100.0,13.3,1505.2,326.9,-0.8,1.8,2470.867,13.29,0.008,125.5
2022-06-07T07:04:03,42.805,6.029,0.005,-0.011,-0.013,102.0,102.0,101.0,13.4,1505.2,327.9,-0.8,1.8,2470.882,13.28,0.012,155.6
2022-06-07T07:07:03,42.805,6.029,0.019,-0.018,-0.017,101.0,103.0,101.0,13.4,1505.2,329.2,-0.8,1.8,2470.862,13.28,0.026,133.5
2022-06-07T07:10:03,42.805,6.029,0.008,0.0,-0.005,105.0,101.0,101.0,13.3,1505.2,325.8,-0.7,1.8,2470.865,13.28,0.008,90.0
2022-06-07T07:13:03,42.805,6.029,0.013,-0.002,-0.01,104.0,102.0,100.0,13.4,1505.2,331.8,-0.8,1.8,2470.861,13.29,0.013,98.7
2022-06-07T07:16:03,42.805,6.029,0.021,-0.008,0.007,103.0,101.0,100.0,13.3,1505.2,332.9,-0.8,1.8,2470.861,13.29,0.022,110.9
2022-06-07T07:19:03,42.805,6.029,0.005,-0.013,0.0,103.0,102.0,100.0,13.4,1505.2,333.2,-0.8,1.8,2470.856,13.29,0.013,159.0
2022-06-07T07:22:03,42.805,6.029,-0.003,0.002,-0.034,101.0,104.0,99.0,13.3,1505.2,331.8,-0.7,1.8,2470.866,13.29,0.003,303.7
2022-06-07T07:25:03,42.805,6.029,0.021,-0.002,-0.019,102.0,101.0,101.0,13.4,1505.2,325.3,-0.8,1.8,2470.866,13.29,0.021,95.4
2022-06-07T07:28:03,42.805,6.029,-0.002,-0.009,0.002,102.0,105.0,100.0,13.4,1505.2,322.6,-0.8,1.8,2470.819,13.29,0.009,192.5
2022-06-07T07:31:03,42.805,6.029,0.02,0.009,0.011,102.0,101.0,100.0,13.4,1505.2,326.7,-0.7,1.8,2470.831,13.29,0.021,65.8
2022-06-07T07:34:03,42.805,6.029,-0.018,0.008,-0.01,102.0,103.0,100.0,13.4,1505.2,328.3,-0.7,1.8,2470.829,13.29,0.019,294.0
2022-06-07T07:37:03,42.805,6.029,0.021,-0.011,-0.038,102.0,102.0,100.0,13.3,1505.2,324.9,-0.7,1.8,2470.82,13.29,0.023,117.6
2022-06-07T07:40:03,42.805,6.029,0.002,-0.014,-0.017,102.0,101.0,100.0,13.4,1505.2,324.4,-0.8,1.8,2470.805,13.29,0.014,171.9
2022-06-07T07:43:03,42.805,6.029,0.013,-0.01,-0.001,103.0,102.0,100.0,13.4,1505.2,325.6,-0.7,1.8,2470.814,13.29,0.016,127.6
2022-06-07T07:46:03,42.805,6.029,0.0,0.007,-0.008,103.0,102.0,101.0,13.3,1505.2,330.9,-0.7,1.8,2470.84,13.29,0.007,0.0
2022-06-07T07:49:03,42.805,6.029,0.009,0.001,0.0,102.0,102.0,100.0,13.3,1505.2,332.9,-0.7,1.8,2470.827,13.29,0.009,83.7
2022-06-07T07:52:03,42.805,6.029,0.016,0.014,0.006,103.0,102.0,100.0,13.3,1505.2,325.6,-0.7,1.8,2470.824,13.29,0.021,48.8
2022-06-07T07:55:03,42.805,6.029,-0.009,-0.002,-0.017,102.0,102.0,104.0,13.3,1505.2,329.2,-0.7,1.8,2470.844,13.29,0.009,257.5
2022-06-07T07:58:03,42.805,6.029,-0.006,0.006,-0.01,104.0,102.0,101.0,13.3,1505.2,327.0,-0.8,1.8,2470.865,13.29,0.008,315.0
2022-06-07T08:04:03,42.805,6.029,0.001,-0.004,-0.032,103.0,103.0,100.0,13.4,1505.2,331.4,-0.7,1.8,2470.909,13.29,0.004,166.0
2022-06-07T08:07:03,42.805,6.029,0.001,0.0,-0.009,102.0,103.0,99.0,13.4,1505.2,330.6,-0.7,1.8,2470.882,13.29,0.001,90.0
2022-06-07T08:10:03,42.805,6.029,-0.01,-0.005,-0.008,103.0,103.0,100.0,13.4,1505.2,329.5,-0.8,1.8,2470.821,13.29,0.011,243.4
2022-06-07T08:13:03,42.805,6.029,0.002,-0.019,-0.032,102.0,102.0,100.0,13.4,1505.2,329.8,-0.8,1.8,2470.848,13.29,0.019,174.0
2022-06-07T08:16:03,42.805,6.029,0.017,-0.009,-0.035,104.0,102.0,99.0,13.4,1505.2,331.4,-0.7,1.8,2470.865,13.29,0.019,117.9
2022-06-07T08:19:03,42.805,6.029,-0.008,-0.005,-0.009,102.0,102.0,101.0,13.3,1505.2,326.6,-0.8,1.8,2470.882,13.29,0.009,238.0
2022-06-07T08:22:03,42.805,6.029,-0.001,0.005,-0.009,103.0,102.0,101.0,13.4,1505.2,320.5,-0.8,1.8,2470.855,13.29,0.005,348.7
2022-06-07T08:25:03,42.805,6.029,0.003,0.002,-0.003,101.0,104.0,100.0,13.3,1505.2,326.1,-0.8,1.8,2470.873,13.29,0.003,56.3
2022-06-07T08:28:03,42.805,6.029,-0.001,-0.013,-0.001,103.0,102.0,100.0,13.4,1505.2,324.1,-0.7,1.9,2470.812,13.29,0.013,184.4
2022-06-07T08:31:03,42.805,6.029,-0.01,0.016,0.007,102.0,103.0,100.0,13.3,1505.2,329.0,-0.8,1.8,2470.814,13.29,0.018,328.0
2022-06-07T08:34:03,42.805,6.029,0.017,-0.007,-0.019,102.0,103.0,101.0,13.4,1505.2,325.4,-0.8,1.8,2470.833,13.29,0.018,112.4
2022-06-07T08:37:03,42.805,6.029,0.018,0.003,-0.013,103.0,103.0,101.0,13.3,1505.2,325.1,-0.8,1.8,2470.848,13.29,0.018,80.5
2022-06-07T08:40:03,42.805,6.029,0.019,-0.006,0.009,102.0,103.0,102.0,13.4,1505.2,323.7,-0.7,1.8,2470.839,13.29,0.019,107.5
2022-06-07T08:43:03,42.805,6.029,0.0,0.01,0.025,103.0,102.0,101.0,13.4,1505.2,333.4,-0.7,1.8,2470.839,13.29,0.01,0.0
2022-06-07T08:46:03,42.805,6.029,0.005,0.0,-0.001,102.0,103.0,102.0,13.4,1505.2,328.7,-0.8,1.8,2470.882,13.29,0.005,90.0
2022-06-07T08:49:03,42.805,6.029,0.033,-0.01,-0.025,101.0,103.0,101.0,13.3,1505.2,327.0,-0.7,1.8,2470.823,13.29,0.034,106.9
2022-06-07T08:52:03,42.805,6.029,0.022,-0.005,0.001,103.0,102.0,100.0,13.4,1505.2,321.9,-0.7,1.8,2470.816,13.29,0.022,102.8
2022-06-07T08:55:03,42.805,6.029,-0.002,-0.002,-0.017,103.0,102.0,101.0,13.4,1505.2,325.5,-0.7,1.8,2470.826,13.29,0.002,225.0
2022-06-07T08:58:03,42.805,6.029,-0.002,0.012,-0.007,104.0,103.0,100.0,13.3,1505.2,326.4,-0.7,1.8,2470.86,13.29,0.012,350.5
2022-06-07T09:04:03,42.805,6.029,0.011,0.016,0.045,103.0,103.0,102.0,13.4,1505.2,332.5,-0.8,1.8,2470.889,13.28,0.019,34.5
2022-06-07T09:07:03,42.805,6.029,0.012,0.006,-0.028,103.0,103.0,103.0,13.4,1505.2,332.5,-0.8,1.8,2470.891,13.29,0.013,63.4
2022-06-07T09:10:03,42.805,6.029,0.012,0.004,0.003,103.0,104.0,100.0,13.4,1505.2,333.2,-0.7,1.8,2470.878,13.29,0.012,71.6
2022-06-07T09:13:03,42.805,6.029,0.002,0.016,0.009,104.0,104.0,100.0,13.4,1505.2,325.7,-0.8,1.8,2470.817,13.29,0.016,7.1
2022-06-07T09:16:03,42.805,6.029,0.011,0.005,-0.024,105.0,103.0,101.0,13.3,1505.2,326.0,-0.8,1.8,2470.87,13.29,0.012,65.6
2022-06-07T09:19:03,42.805,6.029,0.005,0.013,0.009,103.0,103.0,101.0,13.3,1505.2,320.9,-0.7,1.8,2470.866,13.29,0.013,21.0
2022-06-07T09:22:03,42.805,6.029,0.0,0.006,-0.044,102.0,104.0,102.0,13.4,1505.2,331.9,-0.8,1.8,2470.882,13.29,0.006,0.0
2022-06-07T09:25:03,42.805,6.029,0.013,0.015,-0.011,103.0,104.0,100.0,13.4,1505.2,327.8,-0.8,1.8,2470.864,13.29,0.019,40.9
2022-06-07T09:28:03,42.805,6.029,0.005,0.009,-0.002,101.0,105.0,102.0,13.4,1505.2,326.9,-0.8,1.8,2470.873,13.29,0.01,29.1
2022-06-07T09:31:03,42.805,6.029,0.007,0.01,0.008,102.0,103.0,101.0,13.4,1505.2,332.5,-0.8,1.8,2470.8,13.29,0.012,35.0
2022-06-07T09:34:03,42.805,6.029,0.025,0.021,0.019,105.0,103.0,100.0,13.4,1505.2,324.6,-0.8,1.9,2470.817,13.29,0.032,50.0
2022-06-07T09:37:03,42.805,6.029,0.011,0.03,0.005,102.0,104.0,99.0,13.3,1505.2,328.0,-0.8,1.8,2470.856,13.29,0.031,20.1
2022-06-07T09:40:03,42.805,6.029,0.009,0.002,-0.012,105.0,103.0,101.0,13.3,1505.2,321.4,-0.8,1.8,2470.838,13.29,0.009,77.5
2022-06-07T09:43:03,42.805,6.029,-0.015,0.0,-0.02,101.0,103.0,100.0,13.4,1505.2,330.2,-0.8,1.8,2470.861,13.29,0.015,270.0
2022-06-07T09:46:03,42.805,6.029,0.007,0.02,0.058,103.0,103.0,102.0,13.3,1505.2,325.3,-0.8,1.8,2470.788,13.29,0.021,19.3
2022-06-07T09:49:03,42.805,6.029,0.014,0.0,0.0,105.0,104.0,101.0,13.3,1505.2,330.1,-0.7,1.8,2470.829,13.29,0.014,90.0
2022-06-07T09:52:03,42.805,6.029,-0.009,0.014,-0.035,102.0,105.0,102.0,13.3,1505.2,322.9,-0.8,1.8,2470.851,13.29,0.016,327.3
2022-06-07T09:55:03,42.805,6.029,0.031,-0.011,-0.02,103.0,103.0,100.0,13.4,1505.2,327.9,-0.8,1.8,2470.882,13.29,0.032,109.5
2022-06-07T09:58:03,42.805,6.029,-0.007,-0.009,-0.02,103.0,103.0,101.0,13.4,1505.2,330.1,-0.8,1.8,2470.824,13.29,0.011,217.9
2022-06-07T10:04:03,42.805,6.029,0.013,0.021,-0.001,103.0,102.0,100.0,13.4,1505.2,327.9,-0.7,1.8,2470.908,13.29,0.024,31.8